Location: Linz
(48.3300°N, 14.3000°E)
Time: 09:47:45
(UTC+02:00)

YUBILEINY - Pass Details

Date: 28 February 2019
Orbit: 1478 x 1508 km, 82.5° (Epoch: 13 October)

Event Time Altitude Azimuth Distance (km) Brightness Sun altitude
Exits shadow 04:27:01 - 194° (SSW) 4,137 ? -23.9°
Reaches altitude 10° 04:28:34 10° 196° (SSW) 3,610 ? -23.7°
Maximum altitude 04:37:15 75° 281° (WNW) 1,529 ? -22.3°
Drops below altitude 10° 04:46:02 10° 8° (N) 3,645 ? -20.8°
Sets 04:48:57 0° 10° (N) 4,632 ? -20.4°
